Regional Weather Roundup
Issued by NWS

Home | Current Version | Previous Version | Graphics & Text | Print | Product List | Glossary Off
Versions: 1 2 3 4 5 6 7 8 9 10 11 12 13 14 15 16 17 18 19 20 21 22 23 24 25 26 27 28 29 30 31 32 33 34 35 36 37 38 39 40 41 42 43 44 45 46 47 48 49 50

000
ASUS43 KTOP 300808
RWRKS

WEATHER ROUNDUP FOR KANSAS
NATIONAL WEATHER SERVICE GOODLAND KS
300 AM CDT THU MAR 30 2017

NOTE:  "FAIR" INDICATES FEW OR NO CLOUDS BELOW 12,000 FEET WITH NO
SIGNIFICANT WEATHER AND/OR OBSTRUCTIONS TO VISIBILITY.

KSZ001>006-013>018-027>032-041>047-300900-
NORTHWEST KANSAS

CITY           SKY/WX    TMP DP  RH WIND       PRES   REMARKS
GOODLAND       MOCLDY    34  33  96 NW13      29.86R WCI  25
HAYS             N/A     40  37  89 N23G35    29.75F WCI  30
HILL CITY      CLOUDY    41  39  93 N21G30    29.82S
RUSSELL        CLOUDY    39  36  89 NW26      29.72S WCI  28
$$

KSZ061>065-074>080-084>089-300900-
SOUTHWEST KANSAS

CITY           SKY/WX    TMP DP  RH WIND       PRES   REMARKS
DODGE CITY     CLOUDY    41  39  93 N17G28    29.79F
ELKHART          N/A     39  31  73 W10         N/A  WCI  32
GARDEN CITY    CLOUDY    39  37  92 N14       29.83S WCI  31
GREAT BEND     CLOUDY    40  37  89 NW21G31   29.73S WCI  30
LIBERAL        CLEAR     39  36  87 NW15      29.86F WCI  31
PRATT          CLOUDY    37  35  90 NW24G32   29.72R WCI  26
$$

KSZ066>073-081>083-090>101-300900-
SOUTHEAST KANSAS

CITY           SKY/WX    TMP DP  RH WIND       PRES   REMARKS
CHANUTE        LGT RAIN  47  45  93 S14       29.58F FOG
COFFEYVILLE    CLOUDY    47  44  90 SW10      29.63F
MEDICINE LODGE   N/A     42  36  79 NW17G29   29.71S
NEWTON         CLOUDY    41  40  96 NW25G32   29.60F
PARSONS        CLOUDY    48  43  82 SW9       29.62F
WICHITA INTL   DRIZZLE   44  44 100 NW16G28   29.64S FOG
WICHITA JABRA  CLOUDY    42  41  96 NW22G30   29.62S
WICHITA MCCONL LGT RAIN  43  41  93 NW17G31   29.62F
WINFIELD       CLOUDY    44  42  93 W14       29.65F FOG
$$

KSZ007>012-019>026-033>040-048>060-102>105-300900-
NORTHEAST KANSAS

CITY           SKY/WX    TMP DP  RH WIND       PRES   REMARKS
CONCORDIA      LGT RAIN  40  40 100 N15G24    29.66S WCI  32
EMPORIA        CLOUDY    46  46 100 W10       29.54S FOG
LAWRENCE       CLOUDY    52  49  89 SE12      29.57S
MANHATTAN      CLOUDY    47  45  93 N7        29.56S
MARYSVILLE     LGT RAIN  43  43 100 N15G22    29.61S
OLATHE IND     PTCLDY    49  46  90 S8        29.59R
OLATHE EXE     CLOUDY    51  48  89 S13G20    29.57F
SALINA         LGT RAIN  43  40  89 NW24      29.64F
TOPEKA BILLARD CLOUDY    51  48  89 SE3       29.56S
TOPEKA FORBES  CLOUDY    50  47  89 SE6       29.55F
$$



USA.gov is the U.S. government's official web portal to all federal, state and local government web resources and services.